Havre, MT

10:52 AM MST on December 07, 2016 (GMT -0700)
Havre City-County

Weather History for KHVR - July, 2013

Change the Weather History Date:

Saturday, July 6, 2013

  Actual Average Record
Temperature  
Mean Temperature 65 °F 67 °F  
Max Temperature 77 °F 82 °F 105 °F (2007)
Min Temperature 53 °F 52 °F 40 °F (1999)
Degree Days  
Heating Degree Days 0 2  
Month to date heating degree days 0 12  
Since 1 June heating degree days 113 145  
Since 1 July heating degree days 0 12  
Cooling Degree Days 0 4  
Month to date cooling degree days 48 20  
Year to date cooling degree days 98 79  
Since 1 June cooling degree days 91 68  
Growing Degree Days 16 (Base 50)    
Moisture  
Dew Point 53 °F    
Average Humidity 66    
Maximum Humidity 89    
Minimum Humidity 43    
Precipitation  
Precipitation 0.10 in 0.07 in 1.70 in (1993)
Month to date precipitation 0.99 0.42  
Year to date precipitation 12.20 6.34  
Snow  
Snow 0.00 in 0.00 in 0.00 in (1999)
Month to date snowfall 0.0 0.0  
Since 1 June snowfall 0.0 0.0  
Since 1 July snowfall 0.0 0.0  
Snow Depth 0.00 in    
Sea Level Pressure  
Sea Level Pressure 29.88 in    
Wind  
Wind Speed 9 mph (WNW)    
Max Wind Speed 40 mph    
Max Gust Speed 51 mph    
Visibility 10 miles    
Events Rain , Thunderstorm    
T = Trace of Precipitation, MM = Missing Value Source: NWS Daily Summary

Daily Weather History Graph

Daily Weather History Graph

Search for Another Location

Airport or City:

Trip Planner

Search our weather history database for the weather conditions in past years. The results will help you decide how hot, cold, wet, or windy it might be!

Date:

Astronomy

Jul. 06, 2013 Rise Set
Actual Time 5:24 AM MDT 9:22 PM MDT
Civil Twilight 4:43 AM MDT 10:03 PM MDT
Nautical Twilight 3:46 AM MDT 11:00 PM MDT
Astronomical Twilight 2:11 AM MDT 12:33 AM MDT
Moon 4:18 AM MDT (7/6) 8:01 PM MDT (7/6)
Length of Visible Light 17h 19m
Length of Day
15h 57m
Waning Crescent, 2% of the Moon is Illuminated
Jul 6
Waning Crescent
Jul 8
New
Jul 15
First Quarter
Jul 22
Full
Jul 29
Last Quarter

Hourly Weather History & Observations

Time (MDT) Temp. Dew Point Humidity Pressure Visibility Wind Dir Wind Speed Gust Speed Precip Events Conditions
12:53 AM 64.0 °F 61.0 °F 90% 29.76 in 10.0 mi SW 9.2 mph - N/A   Partly Cloudy
1:17 AM 59.0 °F 51.8 °F 77% 29.88 in 8.0 mi WNW 34.5 mph 50.6 mph N/A Thunderstorm Mostly Cloudy
1:24 AM 55.4 °F 51.8 °F 88% 29.89 in 8.0 mi WNW 28.8 mph 50.6 mph 0.00 in Rain , Thunderstorm Light Thunderstorms and Rain
1:53 AM 55.9 °F 52.0 °F 87% 29.86 in 10.0 mi WNW 25.3 mph 34.5 mph 0.04 in Rain , Thunderstorm Light Rain
2:04 AM 57.2 °F 51.8 °F 82% 29.88 in 10.0 mi WNW 24.2 mph 35.7 mph 0.00 in Rain Light Rain
2:53 AM 55.9 °F 51.1 °F 84% 29.82 in 10.0 mi NW 10.4 mph 21.9 mph 0.06 in Rain Light Rain
3:53 AM 55.9 °F 50.0 °F 80% 29.82 in 10.0 mi West 3.5 mph - 0.00 in   Mostly Cloudy
4:53 AM 54.0 °F 50.0 °F 86% 29.85 in 10.0 mi WSW 9.2 mph - N/A   Partly Cloudy
5:53 AM 54.0 °F 50.0 °F 86% 29.86 in 10.0 mi WSW 11.5 mph - N/A   Clear
6:53 AM 55.0 °F 52.0 °F 89% 29.87 in 10.0 mi SW 13.8 mph - N/A   Clear
7:53 AM 57.9 °F 53.1 °F 84% 29.89 in 10.0 mi WSW 11.5 mph - N/A   Partly Cloudy
8:53 AM 62.1 °F 54.0 °F 75% 29.89 in 10.0 mi West 10.4 mph - N/A   Clear
9:53 AM 66.0 °F 52.0 °F 60% 29.90 in 10.0 mi West 10.4 mph - N/A   Clear
10:53 AM 66.0 °F 52.0 °F 60% 29.91 in 10.0 mi West 10.4 mph - N/A   Mostly Cloudy
11:53 AM 69.1 °F 53.1 °F 57% 29.90 in 10.0 mi West 10.4 mph 18.4 mph N/A   Mostly Cloudy
12:53 PM 70.0 °F 53.1 °F 55% 29.91 in 10.0 mi WNW 11.5 mph - N/A   Scattered Clouds
1:53 PM 73.0 °F 54.0 °F 51% 29.91 in 10.0 mi West 12.7 mph - N/A   Partly Cloudy
2:53 PM 75.0 °F 53.1 °F 46% 29.90 in 10.0 mi West 6.9 mph - N/A   Partly Cloudy
3:53 PM 72.0 °F 50.0 °F 46% 29.90 in 10.0 mi North 5.8 mph - N/A   Mostly Cloudy
4:53 PM 75.0 °F 52.0 °F 44% 29.89 in 10.0 mi North 6.9 mph - N/A   Clear
5:53 PM 75.9 °F 52.0 °F 43% 29.87 in 10.0 mi NE 5.8 mph - N/A   Scattered Clouds
6:53 PM 73.9 °F 51.1 °F 45% 29.87 in 10.0 mi ENE 5.8 mph - N/A   Clear
7:53 PM 73.0 °F 53.1 °F 49% 29.86 in 10.0 mi NE 8.1 mph - N/A   Clear
8:53 PM 66.9 °F 55.9 °F 68% 29.87 in 10.0 mi East 6.9 mph - N/A   Clear
9:53 PM 63.0 °F 55.9 °F 78% 29.89 in 10.0 mi North - - N/A   Clear
10:53 PM 62.1 °F 55.0 °F 78% 29.93 in 10.0 mi East 4.6 mph - N/A   Clear
11:53 PM 59.0 °F 55.0 °F 87% 29.94 in 10.0 mi East 3.5 mph - N/A   Clear